Location: Paddlesworth
(51.1000°N, 1.1333°E)
Time: 03:05:10
(UTC+00:00)

Cosmos 1328 Rocket - Pass Details

Date: 11 May 2021
Orbit: 600 x 628 km, 82.5° (Epoch: 14 June)

Event Time Altitude Azimuth Distance (km) Brightness Sun altitude
Exits shadow 20:44:40 - 183° (S) 2,707 6.4 -9.6°
Reaches altitude 10° 20:46:25 10° 182° (S) 1,997 5.8 -9.8°
Maximum altitude 20:50:50 73° 97° (E) 656 3.5 -10.3°
Drops below altitude 10° 20:55:15 10° 14° (NNE) 2,000 6.7 -10.7°
Sets 20:57:29 0° 12° (NNE) 2,907 7.6 -11.0°
